{"data":{"norad_id":44879,"epoch":"2026-05-25T04:54:33.643584Z","epoch_age_seconds":53804,"freshness":"FRESH","line1":"1 44879U 19093A   26145.20455606  .00001884  00000+0  17604-3 0  9991","line2":"2 44879  97.7804 229.2140 0012448 125.5856 234.6526 14.95305221348612","mean_motion":14.95305221,"eccentricity":0.0012448,"inclination_deg":97.7804,"raan_deg":229.214,"arg_perigee_deg":125.5856,"mean_anomaly_deg":234.6526,"bstar":0.00017604,"rev_number":34861,"period_min":96.301409222459,"perigee_km":572.76227141898,"apogee_km":590.08879830577,"semimajor_km":6959.5625348624,"source":"CELESTRAK","updated_at":"2026-05-25T13:37:56.037871Z"}}